Vertical_Velocity
-0 -0 -1 -1 -1 -1 -0 -0 -1 -2 -0 -1 0 -1 -2 -3 -2 -1 -2 -0 -1 -2 -3 1 6 5 0 -1 -4 -2 -1 -1 -3 -2 -3 -0 -1 1 2 9 8 2 1
-1 -0 -0 -0 0 -1 -0 -0 -0 -2 -2 -1 -1 -2 -1 -6 -0 -1 -1 -0 -2 -2 -2 -4 -1 -1 2 0 -3 -4 -4 -2 -3 -4 -3 0 -0 -1 -0 -2 -2 -2 4
-1 -1 -0 -1 0 -1 -1 -1 -0 -1 -1 -1 -1 -2 -2 -3 -1 -1 -0 -1 -1 -1 -0 1 0 -1 0 -1 -4 0 -3 -0 -1 -3 -2 -0 -0 -2 -2 -0 -3 13 2
-2 -1 -1 -1 -1 -1 -1 1 -0 -1 1 -1 -0 -1 -2 -2 -1 -1 0 -1 -2 -2 -1 -0 -1 -0 0 -0 -3 -1 -4 0 -3 -4 -4 -1 -0 -2 -3 -1 1 11 1
-1 -2 -1 -1 -1 -1 -0 -0 -1 -0 -1 0 -1 -1 -2 -0 1 0 -1 -1 -0 -2 -4 -3 -1 -0 -1 -1 -3 -1 -1 -4 -3 -2 -3 -2 -0 -2 -2 0 0 3 0
-1 -1 -2 -2 -2 -1 -2 -0 -1 -1 -1 0 -1 -3 -2 1 1 -1 -1 -1 -0 1 -1 -2 -2 -3 -1 0 0 1 -0 1 -0 -1 -1 -2 -3 -5 -1 -2 -1 0 -6
-1 -1 -1 -0 -2 -2 -2 -1 -2 0 -1 -1 -1 -1 0 -0 -1 -0 -0 -0 -0 -1 0 2 -0 -1 -0 -2 0 1 -0 1 1 1 1 4 -2 -5 -2 0 -0 -2 -2
-1 -1 -1 -0 -1 -3 -2 -2 -1 -1 -1 -1 -1 -0 -1 0 -1 -0 3 2 1 -1 0 -2 -1 -1 -1 -0 -2 -3 -3 -1 -0 1 1 1 -3 -1 -3 -4 -2 -2 -2
-1 -2 -0 -1 -1 -2 -2 -2 -1 -1 -2 -2 -2 -1 -0 -0 -1 -1 1 -0 1 1 1 2 1 2 -4 -2 2 2 -0 -1 0 -1 -1 1 4 -1 0 1 -1 -3 -1
0 -1 -1 -0 -1 -1 -0 -1 -1 -1 -1 -2 -1 -1 -1 -1 -1 -0 1 -1 -2 -1 -1 0 -0 -0 1 0 0 -2 -2 -1 0 0 1 -1 -3 1 0 0 1 1 -1
-0 0 -1 -1 1 0 -0 -1 -1 -0 -0 -1 -1 -1 -1 -0 -2 -2 -1 -0 4 0 1 1 1 -1 1 0 2 1 -1 -1 0 1 1 1 3 2 1 0 -1 -1 1
-1 0 -1 -1 -0 -0 -0 -0 -1 0 -1 -1 -1 -1 -2 -2 -2 -1 -1 -2 -2 1 2 -1 3 3 1 -0 -1 0 0 -1 -0 -1 -2 0 -1 -2 1 3 3 1 -1
-0 -1 0 -2 -1 1 0 -1 -1 -1 -1 -1 -1 -1 -1 -1 -1 -1 0 -2 -4 3 2 4 -1 0 -1 -1 0 -1 1 2 2 1 1 -4 -5 -1 -1 -1 1 3 3
1 -0 1 1 -1 0 -0 0 -1 -2 -2 -1 -0 -1 -0 -1 -1 -1 -1 -0 1 -1 2 1 1 -1 -1 -0 0 0 -0 -2 0 2 1 2 0 -2 -5 -3 -2 -1 1
-1 3 -0 1 0 -1 -1 -1 -1 -0 -1 -1 -1 -2 -1 -0 -0 -1 -0 -1 -2 -1 -1 2 -2 1 -1 -0 -2 -3 -3 -4 -2 -4 -0 1 2 1 -0 -2 -4 -2 -3
-1 0 1 0 0 -1 -2 -1 -1 -1 0 -0 -0 -0 0 0 -0 -2 -5 -3 -4 -0 -2 0 -1 -2 1 -1 -1 -0 2 2 -1 -1 -1 -1 -2 1 3 1 -0 -2 -3
-2 2 0 -1 1 -0 -2 -2 -1 1 0 -1 -2 0 0 0 -1 -1 1 -0 -4 -3 -1 -2 -3 -2 -2 -1 -1 -2 -2 -2 -1 -1 1 -4 -5 -1 -0 1 1 0 -1
1 0 1 0 -1 1 -2 -0 -1 -1 -0 -1 -2 -1 -2 -0 0 -0 -1 -0 -1 1 -0 -0 -1 -2 1 1 -3 -2 -3 -1 -2 -2 -0 1 1 -4 -7 -3 2 1 -2
3 2 -0 1 -3 1 -0 -0 -0 -0 -2 -2 -1 0 -1 -0 1 0 2 2 0 1 1 -1 -1 -1 -2 -1 1 1 0 2 3 3 -1 -0 -1 2 -2 -5 -4 -2 2
-0 2 -0 -0 -1 2 1 0 -2 -2 -1 -1 -1 -0 0 0 -0 1 -0 -1 -1 -2 -2 -1 -2 1 1 -1 -1 -4 -3 -2 -2 -1 -1 0 5 1 -3 -1 1 -2 -3
2 4 0 0 0 1 -1 -1 -1 -1 -1 -2 -0 -0 1 0 -1 -0 -2 -2 -1 -1 -0 0 -2 -2 1 1 -2 -5 -3 1 2 -5 -1 1 1 -0 -0 6 2 2 1
2 2 1 -0 -1 1 1 0 -0 -2 0 -2 -2 -1 -2 -1 1 0 0 0 -1 -1 -1 -2 -1 -1 -1 -2 1 -5 -5 -13 -14 3 -17 1 -9 -4 -4 -3 -2 0 2
1 -1 -0 -1 0 -1 -1 1 -1 -3 1 -1 -1 -1 -1 -0 2 0 0 1 -2 -2 0 -1 -2 -2 0 -1 -1 -0 -5 -3 -2 -1 -3 -11 4 -4 -5 -1 -0 -2 -0
-2 -2 -2 2 -1 1 -1 1 -0 0 1 -1 -1 -0 2 2 1 -1 -2 -1 1 -0 -1 -2 0 -2 -2 -1 -2 -4 -3 -4 -1 8 5 -14 -1 -5 -5 6 6 -2 -1
0 0 2 -1 1 0 1 1 -1 1 -0 -2 -1 -2 1 1 1 1 -0 -0 -1 -1 -1 -0 -0 1 1 2 -1 -2 2 -2 -5 -9 4 2 -2 -11 -4 -6 -4 -2 -2
2 2 1 2 4 2 1 0 1 1 -1 -1 -1 1 1 1 -1 1 -0 0 -1 -0 0 1 2 2 -1 -1 1 2 -2 -5 1 -11 3 -3 -8 5 -11 -17 -2 -3 -5
Height
1552 1552 1552 1551 1550 1549 1549 1548 1547 1546 1546 1546 1545 1545 1546 1545 1545 1544 1543 1543 1542 1542 1542 1542 1540 1540 1539 1537 1536 1534 1532 1530 1528 1526 1524 1523 1522 1520 1518 1516 1514 1512 1510
1552 1552 1552 1551 1550 1550 1549 1548 1547 1547 1546 1546 1546 1546 1546 1546 1546 1544 1544 1543 1542 1542 1542 1542 1542 1541 1540 1539 1537 1535 1532 1530 1528 1526 1525 1523 1521 1520 1518 1516 1514 1512 1509
1551 1551 1551 1551 1550 1549 1549 1548 1547 1547 1546 1546 1546 1546 1546 1547 1547 1545 1544 1544 1543 1542 1542 1542 1541 1541 1540 1539 1537 1535 1533 1530 1528 1526 1525 1523 1521 1518 1517 1516 1514 1512 1508
1550 1551 1550 1550 1549 1549 1548 1548 1547 1547 1546 1546 1545 1546 1547 1547 1547 1546 1545 1544 1543 1542 1541 1541 1540 1540 1539 1538 1537 1535 1533 1530 1528 1526 1525 1523 1520 1517 1516 1515 1514 1512 1509
1549 1549 1549 1549 1548 1548 1548 1547 1547 1546 1546 1545 1545 1546 1547 1547 1547 1546 1545 1545 1544 1543 1542 1541 1540 1539 1538 1537 1536 1535 1533 1530 1528 1525 1523 1523 1520 1517 1515 1514 1513 1511 1508
1548 1548 1548 1548 1547 1547 1547 1547 1546 1546 1545 1545 1545 1546 1547 1547 1547 1546 1545 1545 1544 1543 1542 1541 1541 1540 1539 1538 1536 1534 1533 1531 1528 1525 1523 1523 1521 1517 1515 1513 1511 1510 1508
1546 1546 1546 1546 1546 1546 1546 1546 1546 1545 1544 1544 1545 1546 1546 1546 1546 1546 1545 1545 1544 1544 1543 1543 1541 1540 1539 1537 1536 1535 1533 1530 1527 1525 1524 1523 1520 1517 1515 1513 1510 1508 1506
1543 1544 1544 1544 1544 1545 1545 1545 1545 1544 1544 1544 1544 1544 1545 1547 1546 1546 1546 1545 1544 1544 1543 1542 1542 1540 1539 1538 1535 1534 1533 1531 1527 1525 1524 1522 1519 1515 1514 1512 1510 1507 1504
1541 1542 1542 1542 1542 1543 1543 1543 1543 1543 1543 1543 1543 1544 1544 1544 1545 1546 1546 1545 1545 1544 1543 1542 1542 1541 1539 1537 1536 1534 1533 1530 1528 1525 1523 1521 1520 1515 1512 1511 1509 1506 1503
1538 1539 1539 1540 1540 1540 1540 1541 1541 1541 1541 1541 1542 1542 1542 1542 1542 1544 1544 1543 1544 1543 1542 1542 1540 1540 1538 1536 1535 1534 1532 1530 1527 1524 1522 1520 1518 1515 1511 1509 1507 1505 1502
1535 1535 1536 1537 1538 1538 1538 1538 1539 1539 1540 1540 1540 1541 1541 1541 1541 1542 1542 1542 1543 1542 1541 1542 1540 1539 1537 1536 1534 1533 1531 1529 1526 1524 1521 1519 1516 1513 1510 1508 1505 1503 1501
1530 1532 1533 1534 1535 1535 1535 1536 1537 1537 1537 1538 1538 1538 1539 1539 1539 1540 1540 1540 1540 1540 1541 1541 1540 1538 1537 1535 1533 1532 1530 1527 1525 1522 1520 1517 1515 1512 1509 1506 1504 1502 1500
1525 1527 1529 1530 1531 1532 1532 1533 1534 1534 1535 1535 1536 1536 1537 1537 1537 1537 1537 1537 1538 1540 1539 1540 1538 1537 1535 1534 1532 1530 1528 1525 1523 1520 1518 1516 1513 1511 1508 1505 1502 1499 1497
1522 1524 1525 1525 1527 1528 1529 1530 1530 1531 1532 1533 1534 1534 1535 1535 1535 1535 1535 1535 1535 1536 1537 1537 1537 1536 1534 1532 1529 1527 1525 1523 1520 1518 1515 1513 1511 1508 1506 1504 1501 1498 1495
1517 1519 1520 1522 1522 1524 1525 1526 1527 1528 1528 1529 1530 1531 1532 1532 1532 1532 1532 1533 1534 1534 1534 1535 1534 1533 1531 1529 1527 1524 1522 1521 1518 1516 1513 1511 1508 1506 1503 1501 1499 1497 1494
1513 1515 1516 1517 1518 1519 1521 1522 1523 1524 1525 1526 1527 1528 1529 1529 1530 1529 1529 1530 1531 1533 1534 1533 1532 1530 1528 1526 1524 1523 1521 1518 1516 1513 1511 1508 1506 1504 1501 1498 1496 1494 1492
1508 1510 1511 1512 1514 1515 1516 1518 1520 1521 1522 1523 1524 1525 1526 1526 1527 1528 1528 1528 1528 1530 1531 1531 1529 1528 1525 1524 1523 1521 1519 1517 1515 1512 1509 1505 1504 1502 1499 1497 1494 1491 1489
1502 1504 1506 1507 1510 1511 1512 1514 1516 1518 1519 1520 1522 1522 1524 1524 1524 1524 1525 1525 1525 1525 1526 1526 1525 1525 1524 1522 1520 1519 1517 1515 1512 1510 1508 1505 1502 1499 1497 1494 1491 1488 1486
1498 1499 1501 1503 1506 1508 1508 1510 1513 1515 1516 1518 1519 1520 1521 1521 1521 1522 1523 1523 1523 1524 1523 1523 1523 1523 1522 1520 1519 1517 1515 1514 1512 1508 1506 1504 1501 1498 1494 1492 1488 1485 1482
1493 1494 1497 1499 1502 1504 1505 1507 1509 1512 1513 1515 1516 1518 1519 1519 1520 1519 1520 1521 1521 1521 1521 1521 1521 1520 1518 1517 1515 1513 1512 1511 1508 1507 1505 1503 1500 1496 1493 1490 1486 1483 1480
1487 1490 1492 1495 1498 1500 1502 1504 1506 1508 1510 1512 1513 1515 1516 1516 1517 1517 1517 1518 1518 1519 1519 1519 1518 1517 1516 1514 1512 1510 1509 1507 1504 1502 1501 1499 1496 1493 1489 1487 1484 1481 1478
1482 1485 1488 1491 1494 1496 1499 1501 1502 1505 1506 1508 1510 1512 1513 1514 1514 1514 1515 1515 1516 1516 1516 1516 1516 1515 1513 1512 1510 1509 1506 1502 1501 1499 1496 1495 1493 1490 1487 1484 1481 1478 1474
1477 1480 1484 1487 1489 1493 1495 1497 1498 1501 1503 1504 1507 1509 1510 1511 1511 1511 1513 1514 1514 1515 1515 1515 1513 1512 1511 1509 1508 1506 1504 1503 1501 1498 1494 1492 1488 1485 1484 1480 1476 1474 1471
1472 1476 1480 1482 1485 1488 1491 1493 1494 1497 1499 1501 1504 1506 1508 1508 1508 1509 1510 1511 1512 1512 1512 1512 1511 1510 1508 1507 1505 1503 1501 1499 1498 1496 1491 1487 1485 1480 1478 1476 1473 1470 1468
1467 1471 1475 1478 1481 1484 1486 1488 1491 1493 1494 1497 1500 1502 1504 1505 1505 1506 1507 1509 1510 1510 1510 1509 1509 1508 1507 1505 1502 1500 1498 1495 1491 1490 1486 1481 1478 1475 1472 1470 1469 1466 1464
1463 1467 1470 1473 1477 1480 1482 1484 1486 1488 1491 1493 1496 1498 1500 1501 1502 1504 1505 1506 1507 1507 1507 1507 1506 1504 1503 1502 1500 1496 1493 1491 1488 1484 1485 1479 1475 1472 1463 1463 1462 1460 1457